This is the latest recevied weather packets stored in our database for station/object EA1CUE-WX. If no packets are shown the sender has not sent any weather packets the latest 1 day(s).
| Time | Temp. | Humidity | Pressure | Rain* | Wind** | Luminosity | Snow |
|---|---|---|---|---|---|---|---|
| 1836274593 | 18.89° C | 35% | 1018.6 hPa | 0 mm | 0 m/s | - | - |
| 1836274443 | 18.33° C | 34% | 1018.5 hPa | 0 mm | 0 m/s | - | - |
| 1836274293 | 18.89° C | 33% | 1018.5 hPa | 0 mm | 0 m/s | - | - |
| 1836274143 | 18.89° C | 34% | 1018.5 hPa | 0 mm | 0 m/s | - | - |
| 1836273993 | 18.89° C | 34% | 1018.6 hPa | 0 mm | 0 m/s | - | - |
| 1778056726 | 8.89° C | 1% | 1013.3 hPa | 0 mm | 0 m/s | - | - |
| 1778056426 | 8.89° C | 1% | 1013.2 hPa | 0 mm | 0 m/s | - | - |
| 1778056126 | 8.33° C | 1% | 1013.2 hPa | 0 mm | 0 m/s | - | - |
| 1778055826 | 8.33° C | 1% | 1013.2 hPa | 0 mm | 0 m/s | - | - |
| 1778055526 | 8.33° C | 1% | 1013.3 hPa | 0 mm | 0 m/s | - | - |
| 1778055226 | 8.33° C | 1% | 1013.3 hPa | 0 mm | 0 m/s | - | - |
| 1778054926 | 8.33° C | 1% | 1013.3 hPa | 0 mm | 0 m/s | - | - |
| 1778054626 | 8.33° C | 1% | 1013.2 hPa | 0 mm | 0 m/s | - | - |
| 1778054326 | 8.33° C | 1% | 1013.2 hPa | 0 mm | 0 m/s | - | - |
| 1778054026 | 8.33° C | 1% | 1013.2 hPa | 0 mm | 0 m/s | - | - |
| 1778053726 | 8.33° C | 1% | 1013.2 hPa | 0 mm | 0 m/s | - | - |
| 1778053426 | 8.33° C | 1% | 1013.2 hPa | 0 mm | 0 m/s | - | - |
| 1778053126 | 8.33° C | 1% | 1013.2 hPa | 0 mm | 0 m/s | - | - |
| 1778052826 | 8.33° C | 1% | 1013.1 hPa | 0 mm | 0 m/s | - | - |
| 1778052526 | 8.33° C | 1% | 1013.2 hPa | 0 mm | 0 m/s | - | - |
| 1778052226 | 8.33° C | 1% | 1013.2 hPa | 0 mm | 0 m/s | - | - |
| 1778051926 | 8.89° C | 1% | 1013.1 hPa | 0 mm | 0 m/s | - | - |
| 1778051626 | 8.89° C | 1% | 1013 hPa | 0 mm | 0 m/s | - | - |
| 1778051326 | 8.89° C | 1% | 1013 hPa | 0 mm | 0 m/s | - | - |
| 1778051026 | 8.89° C | 1% | 1013 hPa | 0 mm | 0 m/s | - | - |
* Rain latest hour (hover to see other rain measurements)
** Current wind speed in m/s (hover to see current wind gust speed)